Flag for United Kingdom Weather past 2 weeks in Liverpool, England, United Kingdom

Now
70 °F

Scattered clouds.


Feels Like: 70 °F
Forecast: 58 / 72 °F
Wind: 5 mph from South

Location: Liverpool Airport

Current Time: Jul 2, 2015 at 11:32:10 AM

Latest Report: Jul 2, 2015 at 10:50 AM


Visibility: N/A

Pressure: 30.01 "Hg

Humidity: 73%

Dew point: 61 °F

Location of LiverpoolLocation

Historic Weather in Liverpool — Graph

°F

Liverpool temperature yesterday

Maximum temperature yesterday: 81 °F (at 2:20 PM)
Minimum temperature yesterday: 64 °F (at 4:50 AM)
Average temperature yesterday: 72 °F

Past Weeks' High & Low Weather Summary

 TemperatureHumidityPressure
High82 °F (Jun 30, 3:50 PM)100% (Jun 17, 3:20 PM)30.21 "Hg (Jun 17, 3:20 PM)
Low50 °F (Jun 22, 5:50 AM)45% (Jun 30, 4:50 PM)29.77 "Hg (Jul 1, 3:50 PM)
Average62 °F77%30.04 "Hg
* Reported Jun 17 10:20 AM — Jul 2 10:20 AM, Liverpool, Weather by CustomWeather, © 2015

Note: Actual official high and low records may vary slightly from our data, if they occured in-between our weather recording intervals... More about our weather records

Advertising

Liverpool weather history for previous 24 hours

 ConditionsComfort  
Time TempWeatherWind HumidityBarometerVisibility
10:20 AM
Thu, Jul 2
68 °FPassing clouds.3 mph78%30.01 "HgN/A
9:50 AM68 °FPassing clouds.6 mph78%30.01 "HgN/A
9:20 AM66 °FPassing clouds.6 mph83%30.01 "HgN/A
8:50 AM66 °FPassing clouds.2 mph83%29.98 "HgN/A
8:20 AM64 °FScattered clouds.6 mph88%30.01 "HgN/A
7:50 AM64 °FScattered clouds.5 mph88%30.01 "HgN/A
7:20 AM63 °FPassing clouds.3 mph88%30.01 "HgN/A
6:50 AM61 °FPassing clouds.5 mph94%29.98 "HgN/A
6:20 AM61 °FPassing clouds.3 mph88%29.98 "HgN/A
5:50 AM59 °FPassing clouds.7 mph94%29.98 "HgN/A
5:20 AM61 °FPassing clouds.6 mph88%29.95 "HgN/A
4:50 AM61 °FPassing clouds.7 mph88%29.95 "HgN/A
4:20 AM61 °FPassing clouds.6 mph88%29.95 "Hg5 mi
3:50 AM63 °FPassing clouds.7 mph88%29.95 "Hg5 mi
3:20 AM63 °FPassing clouds.5 mph94%29.95 "Hg5 mi
2:50 AM64 °FScattered showers. Passing clouds.3 mph94%29.95 "HgN/A
2:20 AM63 °FScattered showers. Passing clouds.3 mph94%29.92 "HgN/A
1:50 AM63 °FScattered showers. Passing clouds.5 mph94%29.92 "HgN/A
1:20 AM64 °FScattered showers. Passing clouds.6 mph88%29.89 "HgN/A
12:50 AM66 °FScattered showers. Clear.7 mph88%29.89 "HgN/A
12:20 AM66 °FScattered showers. Passing clouds.7 mph88%29.89 "HgN/A
11:50 PM
Wed, Jul 1
66 °FScattered showers. Passing clouds.7 mph83%29.89 "HgN/A
11:20 PM66 °FThundershowers. Passing clouds.6 mph88%29.89 "HgN/A
10:50 PM68 °FThunderstorms. Passing clouds.6 mph83%29.86 "HgN/A
10:20 PM68 °FThunderstorms. Scattered clouds.9 mph83%29.86 "HgN/A
9:50 PM70 °FThunderstorms. Passing clouds.9 mph78%29.83 "HgN/A
9:20 PM72 °FPassing clouds.5 mph73%29.83 "HgN/A
8:50 PM73 °FPassing clouds.5 mph69%29.80 "HgN/A
8:20 PM73 °FPassing clouds.5 mph69%29.80 "HgN/A
7:50 PM73 °FPassing clouds.7 mph69%29.80 "HgN/A
7:20 PM73 °FPassing clouds.7 mph69%29.83 "HgN/A
6:50 PM73 °FSunny.12 mph69%29.83 "Hg10 mi
6:20 PM77 °FSunny.14 mph61%29.83 "Hg10 mi
5:50 PM79 °FSunny.6 mph70%29.80 "Hg10 mi
5:20 PM79 °FSunny.7 mph70%29.80 "Hg10 mi
4:50 PM81 °FSunny.6 mph62%29.80 "Hg10 mi
4:20 PM81 °FScattered showers. Passing clouds.7 mph62%29.77 "HgN/A
3:50 PM79 °FSprinkles. Passing clouds.9 mph65%29.77 "HgN/A
3:20 PM79 °FPassing clouds.8 mph61%29.80 "HgN/A
2:50 PM81 °FSunny.12 mph58%29.80 "Hg10 mi
2:20 PM81 °FSunny.9 mph58%29.83 "Hg10 mi
1:50 PM79 °FSunny.3 mph65%29.83 "Hg10 mi
1:20 PM79 °FPassing clouds.6 mph61%29.83 "HgN/A
12:50 PM77 °FPassing clouds.8 mph65%29.80 "HgN/A
12:20 PM75 °FSunny.10 mph65%29.83 "Hg10 mi
11:50 AM77 °FPassing clouds.9 mph61%29.83 "HgN/A
11:20 AM77 °FSunny.9 mph61%29.83 "Hg10 mi
Weather by CustomWeather, © 2015

See weather overviewHow to use our weather pages